Wind_Speed
28 27 26 26 24 24 23 23 22 22 21 20 20 19 19 18 17 15 14 14 13 12 12 11 12 11 11 11 10 9 10 10 10 10 10 10 10 11 11 11 10 10
28 28 27 27 26 25 24 24 23 23 22 22 22 21 20 20 19 17 16 15 14 13 13 13 13 13 12 12 11 10 10 10 11 11 11 11 10 10 10 10 10 9
29 28 28 27 26 25 25 25 24 24 23 23 24 23 22 20 20 19 18 17 15 15 14 14 14 14 14 13 12 12 11 11 11 11 11 11 11 10 10 10 10 9
29 28 28 27 27 26 26 26 25 25 25 25 25 24 23 21 21 21 20 19 18 16 15 15 14 15 15 15 14 13 12 12 11 11 12 12 12 11 10 10 10 9
29 29 28 28 28 28 28 27 27 26 26 25 25 25 24 23 22 21 21 20 19 18 16 15 15 15 15 16 16 15 14 13 12 12 12 12 12 11 11 10 10 9
29 29 29 28 29 29 29 29 28 27 27 26 26 26 26 24 23 23 21 20 20 19 18 17 16 15 15 16 17 17 16 15 15 14 14 13 13 13 12 11 11 10
30 30 29 29 30 29 29 29 29 28 28 27 27 26 26 25 24 24 22 21 21 20 19 18 17 16 15 15 16 18 18 17 17 16 16 15 15 14 14 13 13 12
30 30 30 30 30 30 30 30 29 29 28 28 28 27 26 25 24 24 23 22 22 21 20 19 18 17 17 16 16 16 18 19 19 18 18 18 17 16 16 16 15 15
31 31 31 31 31 31 31 30 29 29 29 29 28 27 27 25 25 24 24 23 23 22 21 20 19 18 18 17 16 15 16 18 19 19 20 20 20 19 19 19 18 17
31 31 31 31 31 31 31 30 29 29 29 29 29 28 27 25 25 25 24 23 23 23 22 21 19 19 19 18 17 16 16 17 18 19 20 21 21 21 22 21 21 20
30 31 31 32 32 32 31 30 30 29 29 29 29 29 27 26 25 26 24 23 22 22 21 20 20 19 19 18 17 17 16 17 18 19 19 20 22 22 23 23 23 22
30 30 30 31 32 32 31 31 31 29 29 29 29 29 29 27 26 26 24 22 21 22 21 20 20 20 19 18 17 17 16 17 18 19 19 20 21 22 23 23 24 23
29 30 29 30 30 31 32 32 31 30 29 28 28 29 29 28 27 26 25 23 22 22 21 20 20 20 19 18 18 17 17 17 18 18 18 19 20 21 22 23 24 24
28 29 30 30 30 31 32 32 32 31 30 29 28 28 28 28 27 26 25 24 23 23 23 22 21 21 20 19 19 18 17 17 17 18 18 18 18 19 21 22 23 23
27 29 31 32 32 33 32 32 32 32 32 30 29 28 28 28 27 27 26 25 25 24 24 23 22 21 21 20 19 19 18 17 17 18 18 19 18 18 20 21 22 22
27 29 30 32 33 33 33 33 32 32 33 32 30 29 29 28 28 27 26 25 25 25 25 25 23 21 20 19 19 18 18 19 19 18 18 19 19 19 19 20 21 22
28 29 30 31 32 33 33 34 34 33 33 33 32 31 31 30 30 29 28 26 25 25 25 25 24 23 21 20 19 19 19 20 20 19 19 20 20 20 19 20 21 21
29 29 29 30 31 32 32 34 35 34 34 33 33 31 31 31 31 30 29 27 26 26 26 25 25 24 23 21 20 20 20 21 21 21 20 20 20 20 20 20 21 21
30 29 29 29 30 31 31 33 35 35 34 34 32 31 31 32 32 31 29 28 27 27 26 26 25 25 24 23 21 21 22 22 22 22 22 21 21 21 21 21 21 21
30 29 29 29 29 30 31 32 35 35 34 34 33 32 32 32 32 32 30 29 28 28 27 26 25 26 26 24 23 22 23 23 24 23 23 23 22 22 22 22 22 22
31 30 30 30 31 31 30 31 33 35 35 34 34 33 32 32 32 32 31 30 29 28 28 27 27 28 27 25 24 23 24 24 25 25 25 24 24 23 22 22 22 22
33 31 31 32 32 32 31 30 31 33 34 34 34 33 33 32 32 32 32 31 30 29 29 28 28 29 29 26 24 24 25 26 27 27 27 26 25 24 23 22 22 23
36 33 32 32 33 33 32 30 30 32 33 33 33 33 33 33 32 33 32 31 30 30 30 29 29 29 29 27 25 25 27 28 28 28 28 27 26 25 24 23 23 23
39 35 33 33 33 33 32 31 30 30 31 31 32 32 32 33 32 32 33 32 31 31 31 30 30 30 30 29 27 27 27 28 29 29 29 28 27 26 25 24 24 23
41 38 34 33 33 33 33 31 30 29 29 29 30 30 31 32 31 32 32 32 32 32 32 31 31 32 32 30 29 28 28 28 30 30 30 29 28 27 26 25 24 22
43 40 36 34 33 32 32 32 31 29 29 28 28 29 30 31 31 32 32 32 32 32 33 33 32 32 32 30 29 28 28 29 31 31 31 30 28 28 27 25 24 22
Wind_Direction
222 221 221 221 220 220 218 216 218 218 216 212 208 206 205 203 205 207 209 211 210 208 206 200 192 190 189 189 185 176 168 162 159 155 149 147 145 143 141 137 134 131
223 221 220 220 219 218 218 216 217 218 216 213 211 209 207 206 207 208 209 211 211 211 209 205 200 195 194 193 190 184 176 169 166 163 160 159 157 154 152 148 144 141
224 223 220 220 219 218 218 217 216 217 217 215 214 213 210 209 210 210 210 210 211 213 213 210 206 202 199 197 196 192 186 181 179 175 171 170 169 168 165 160 157 154
223 223 221 220 220 219 218 218 216 216 217 217 216 216 213 212 213 212 213 212 211 213 215 214 211 208 205 202 201 200 196 192 190 188 184 181 180 180 176 173 171 170
223 223 222 221 221 220 218 218 217 216 218 218 219 219 217 215 215 215 216 216 215 216 217 218 218 215 210 207 206 205 204 201 200 199 197 193 193 193 191 188 187 189
223 222 221 221 221 221 219 219 218 216 218 220 221 222 221 219 218 218 217 217 219 219 219 221 222 220 217 213 211 210 209 209 208 206 206 205 206 207 207 205 206 209
224 223 221 220 221 221 220 220 219 218 219 222 223 223 223 221 220 221 219 217 219 221 221 222 223 223 223 221 218 215 214 216 216 213 213 215 216 218 220 220 221 224
224 223 221 221 220 221 221 220 220 220 220 223 224 225 225 224 223 224 223 220 220 223 224 225 227 227 227 227 227 223 219 221 223 221 219 222 225 226 229 231 231 233
223 223 222 222 221 221 222 222 221 221 222 224 226 227 227 226 226 226 225 222 222 224 226 228 231 232 232 233 233 231 226 226 228 227 225 227 229 231 233 237 238 239
222 223 223 222 222 222 223 223 223 223 224 225 227 229 229 228 228 229 227 224 224 226 227 230 234 236 237 238 238 239 237 234 235 234 232 231 233 234 236 239 241 242
219 221 223 223 223 224 224 224 224 225 226 227 227 229 231 230 230 231 229 226 226 228 230 231 234 237 239 242 243 244 243 241 240 240 238 237 237 239 240 242 244 245
217 219 221 223 225 226 225 225 225 225 226 228 229 230 232 231 231 233 232 229 228 230 232 231 233 236 238 242 245 246 245 245 245 243 242 241 241 242 244 245 247 248
216 216 219 221 223 225 227 227 226 225 225 227 229 231 233 233 233 235 235 233 231 233 234 233 232 234 237 239 242 246 246 246 248 249 247 244 245 246 248 249 250 251
217 216 217 218 219 223 226 228 227 226 226 227 228 231 233 235 235 236 237 236 235 236 238 238 235 235 236 237 239 244 248 248 249 252 252 249 247 248 250 252 254 254
218 217 217 217 218 219 223 226 227 228 230 230 229 231 234 236 236 237 237 238 238 238 240 242 241 239 238 239 238 241 247 250 249 250 254 254 251 250 250 252 255 256
219 218 217 217 218 219 220 224 226 227 231 232 231 231 234 235 236 237 237 238 239 240 242 244 246 244 242 242 241 241 243 248 250 249 250 253 253 252 251 253 255 256
221 220 219 218 219 220 220 222 224 226 229 232 233 233 234 236 237 238 239 240 242 243 243 245 247 248 245 243 242 243 242 244 248 250 249 251 253 253 253 254 256 257
222 222 222 221 221 222 221 222 223 225 227 231 234 233 234 236 237 238 240 241 243 244 244 243 244 246 245 242 241 243 244 244 246 248 249 249 251 254 254 255 257 259
222 222 222 222 222 222 222 222 224 225 226 228 232 233 234 236 237 238 238 240 242 243 243 242 242 243 243 241 240 241 243 245 245 247 248 249 250 252 254 256 258 260
223 222 221 221 222 223 223 222 223 225 225 227 229 232 233 234 236 236 236 237 239 241 242 241 241 242 241 240 239 239 241 244 246 247 247 248 249 250 252 256 258 260
224 222 221 221 221 222 224 223 223 223 224 225 227 229 231 232 235 236 236 235 236 238 240 239 238 240 240 238 237 238 240 242 244 246 246 247 248 249 251 254 257 259
225 223 222 221 220 222 223 223 222 222 223 223 224 227 230 231 232 234 235 234 234 236 237 236 236 237 238 237 235 236 240 241 241 244 246 247 248 250 252 254 256 257
225 224 223 222 220 221 223 223 223 222 222 222 223 225 228 230 230 232 234 233 233 233 234 235 235 235 236 236 234 234 238 242 242 242 245 247 249 251 253 254 255 256
226 226 225 224 222 221 222 224 223 223 222 222 222 224 227 230 231 231 232 233 232 232 233 234 235 235 235 235 233 233 237 241 243 243 245 247 249 251 253 254 254 255
227 227 227 226 224 222 222 224 224 225 224 223 223 224 226 229 231 230 231 231 231 232 233 233 234 237 236 233 232 233 236 240 243 245 246 248 250 252 254 254 255 254
227 228 228 228 226 223 222 224 225 226 226 225 225 225 226 228 230 230 230 230 230 232 233 233 233 236 238 235 233 234 235 238 242 245 247 250 251 253 254 255 255 254
Height
3204 3206 3209 3211 3213 3214 3216 3218 3220 3221 3223 3224 3225 3226 3227 3229 3230 3231 3232 3233 3234 3235 3236 3237 3238 3239 3240 3240 3241 3242 3242 3243 3243 3244 3245 3246 3246 3247 3247 3248 3249 3249
3202 3204 3207 3209 3211 3213 3215 3216 3218 3220 3221 3223 3224 3225 3226 3227 3228 3230 3231 3232 3233 3234 3235 3236 3237 3238 3239 3240 3241 3242 3242 3243 3244 3244 3245 3246 3246 3247 3248 3248 3249 3249
3200 3202 3205 3207 3209 3211 3213 3215 3217 3218 3220 3221 3222 3224 3225 3226 3227 3229 3230 3231 3232 3233 3234 3235 3236 3237 3238 3239 3240 3241 3242 3243 3244 3244 3245 3246 3247 3247 3248 3248 3249 3250
3199 3201 3203 3205 3207 3209 3211 3213 3215 3217 3218 3220 3221 3222 3224 3225 3226 3227 3229 3230 3231 3232 3233 3234 3235 3236 3237 3239 3240 3241 3242 3243 3243 3244 3245 3246 3247 3247 3248 3249 3249 3250
3197 3199 3201 3203 3205 3207 3209 3211 3213 3215 3217 3218 3220 3221 3222 3223 3225 3226 3228 3229 3231 3232 3233 3234 3235 3236 3237 3238 3239 3240 3241 3242 3243 3244 3245 3246 3246 3247 3248 3248 3249 3250
3194 3196 3199 3201 3203 3205 3207 3209 3211 3213 3215 3216 3218 3219 3220 3222 3223 3225 3226 3228 3229 3231 3232 3233 3234 3235 3236 3237 3238 3239 3240 3241 3242 3243 3244 3245 3246 3247 3247 3248 3249 3249
3192 3194 3197 3199 3201 3203 3205 3207 3209 3211 3213 3214 3216 3217 3219 3220 3222 3223 3225 3227 3228 3229 3230 3232 3233 3234 3235 3236 3237 3238 3239 3240 3241 3242 3243 3244 3245 3246 3247 3247 3248 3249
3190 3192 3195 3197 3199 3201 3203 3205 3207 3209 3211 3212 3214 3216 3217 3219 3220 3222 3223 3225 3226 3227 3229 3230 3231 3233 3233 3234 3236 3237 3238 3239 3240 3241 3242 3243 3244 3245 3245 3246 3247 3248
3187 3190 3192 3194 3196 3198 3200 3203 3205 3207 3208 3210 3212 3214 3215 3217 3219 3220 3222 3223 3224 3226 3227 3229 3230 3231 3232 3233 3234 3235 3237 3237 3238 3240 3241 3242 3242 3243 3244 3245 3246 3246
3185 3187 3190 3192 3194 3196 3198 3201 3202 3204 3206 3208 3210 3212 3213 3215 3217 3218 3220 3221 3223 3224 3225 3227 3228 3229 3230 3231 3233 3234 3235 3236 3237 3238 3239 3240 3241 3242 3242 3243 3244 3245
3182 3184 3187 3189 3192 3194 3196 3198 3200 3202 3204 3206 3208 3210 3211 3213 3215 3216 3218 3220 3221 3222 3224 3225 3226 3228 3228 3229 3231 3232 3233 3234 3235 3236 3237 3238 3239 3240 3241 3241 3242 3243
3179 3181 3184 3187 3189 3191 3194 3196 3198 3200 3202 3203 3206 3207 3209 3211 3213 3214 3216 3218 3220 3221 3222 3223 3225 3226 3227 3228 3229 3230 3231 3232 3233 3234 3235 3236 3237 3238 3239 3239 3240 3241
3176 3178 3181 3184 3186 3189 3191 3193 3195 3197 3199 3201 3203 3205 3207 3208 3210 3212 3214 3216 3218 3219 3220 3221 3223 3224 3225 3226 3227 3228 3229 3230 3231 3232 3233 3234 3235 3236 3236 3237 3238 3239
3173 3176 3178 3181 3183 3186 3188 3190 3193 3195 3196 3198 3200 3202 3204 3206 3208 3210 3212 3214 3215 3217 3218 3219 3221 3222 3223 3224 3225 3226 3227 3228 3229 3230 3231 3232 3233 3234 3234 3235 3235 3236
3171 3173 3176 3178 3180 3183 3185 3187 3190 3192 3194 3196 3198 3200 3202 3204 3206 3207 3209 3211 3213 3214 3215 3217 3218 3219 3221 3222 3224 3225 3226 3227 3228 3229 3229 3230 3231 3232 3232 3233 3234 3234
3169 3171 3173 3175 3177 3179 3182 3184 3187 3189 3191 3193 3195 3198 3199 3201 3203 3205 3206 3208 3210 3211 3213 3214 3215 3217 3219 3220 3222 3223 3224 3225 3226 3227 3228 3228 3229 3230 3230 3231 3232 3232
3166 3169 3170 3173 3175 3177 3179 3181 3183 3186 3188 3190 3192 3195 3197 3198 3200 3202 3204 3206 3207 3209 3210 3211 3213 3214 3216 3218 3220 3221 3222 3223 3224 3225 3226 3226 3227 3227 3228 3229 3230 3230
3164 3166 3168 3170 3172 3174 3176 3179 3181 3183 3185 3187 3189 3192 3194 3196 3197 3199 3201 3203 3205 3206 3207 3209 3210 3212 3213 3215 3217 3219 3220 3221 3222 3222 3223 3224 3225 3225 3226 3227 3227 3228
3161 3163 3166 3168 3170 3172 3174 3176 3178 3180 3182 3184 3186 3189 3191 3193 3194 3196 3198 3200 3202 3203 3204 3206 3208 3209 3210 3212 3214 3216 3217 3218 3219 3220 3221 3222 3222 3223 3224 3224 3225 3226
3158 3161 3163 3165 3167 3169 3171 3173 3175 3177 3179 3181 3183 3185 3187 3189 3191 3193 3195 3197 3199 3200 3202 3204 3205 3206 3207 3209 3211 3213 3215 3215 3216 3217 3218 3219 3219 3220 3221 3222 3223 3224
3155 3158 3160 3162 3164 3166 3168 3170 3172 3174 3176 3178 3180 3182 3184 3186 3188 3190 3191 3194 3195 3197 3199 3200 3202 3203 3204 3207 3209 3210 3212 3213 3213 3214 3215 3216 3216 3217 3218 3219 3220 3221
3153 3155 3157 3159 3161 3163 3165 3167 3169 3170 3172 3175 3177 3179 3181 3183 3185 3186 3188 3190 3192 3194 3196 3197 3199 3200 3201 3204 3206 3208 3208 3209 3210 3211 3211 3212 3213 3215 3216 3217 3218 3218
3149 3152 3154 3156 3157 3159 3162 3164 3166 3168 3170 3172 3174 3176 3177 3179 3182 3183 3185 3187 3189 3191 3192 3194 3195 3197 3198 3201 3203 3204 3205 3206 3207 3208 3208 3209 3211 3212 3213 3214 3215 3216
3146 3148 3151 3153 3155 3157 3159 3161 3163 3165 3167 3169 3171 3173 3175 3176 3179 3181 3182 3184 3185 3187 3189 3191 3192 3193 3195 3197 3199 3201 3202 3203 3204 3204 3205 3206 3208 3209 3210 3211 3212 3213
3143 3145 3148 3150 3152 3154 3156 3158 3161 3163 3164 3166 3168 3170 3172 3174 3176 3177 3179 3180 3182 3184 3185 3187 3189 3190 3191 3194 3196 3198 3199 3200 3200 3201 3202 3203 3205 3206 3207 3208 3209 3210
3139 3142 3144 3147 3149 3152 3154 3156 3158 3160 3162 3164 3166 3167 3169 3171 3172 3174 3175 3177 3179 3180 3181 3183 3186 3187 3188 3190 3193 3195 3196 3197 3197 3197 3198 3200 3202 3203 3204 3205 3207 3208